Aérodrome :
LOGIN :

S'inscrire | Disclaimer

   EN    FR    IT 

 










Légende :    VFR   VFR Marginal   IFR   IFR Intensif   IFR Très Intensif
Visi : 
Plafond : 
>= 8 km
>= 3000ft
5 à 8 km
1000 à 3000 ft
1500m à 5 km
500 à 1000 ft
800 à 1500m
200 à 500 ft
< 800m
< 200 ft
Symboles :   Orages  Brouillard  Fortes neiges  Fortes précipitations  Vent > 20 kt
SIGMETs :   Divers  Orages  Givrage  Turbulence  Onde Orograph.  Cendres Volcan.






- Altitude de l'aérodrome : 17 ft
- Code IATA : GRS


LIRS - Grosseto

DERNIER METAR :
  • 290055Z 01008KT 9999 -RA FEW015 SCT030 BKN060 12/08 Q1010 RMK OVC VIS MIN 9999 WIND THR03 02009KT WIND THR21 03006KT BLU

METARs EXPIRÉS :
  • 282355Z 01008KT 9999 -RA FEW015 SCT025 12/07 Q1010
  • 282255Z 36007KT 9999 FEW015 SCT040 12/07 Q1010

TAF TAF LIRS
Valide du 29 à 00h jusqu'au 29 à 09h UTC


282300Z 2900/2909 05010KT 8000 BKN030
TEMPO 2900/2903 RA SCT015
TEMPO 2901/2906 05015G25KT



MET'MAP, la Météo Aéronautique d'un coup d'oeil ! - Copyright ORBIFLY Décembre 2007 - Disclaimer

ORBIFLY MET'MAP TEAM :

Programmation & Développement : Alexandra Zaïnal
Sur une idée originale de : Baudouin d'Aumeries
Assistance à la programmation : Marc-Olivier Méhu
Soutien technique & logistique : Manuel Goepfert

Contact : metmap@orbifly.com




SOURCES & CREDITS :

   NOAA